Regional Weather Roundup
Issued by NWS Mobile, AL

Home | Current Version | Previous Version | Text Only | Print | Product List | Glossary On
Versions: 1 2 3 4 5 6 7 8 9 10 11 12 13 14 15 16 17 18 19 20 21 22 23 24 25 26 27
000
ASUS44 KMOB 242010
RWRMOB
REGIONAL WEATHER ROUNDUP
NATIONAL WEATHER SERVICE MOBILE AL
300 PM CDT THU APR 24 2014

NOTE: "FAIR" INDICATES FEW OR NO CLOUDS BELOW 12,000 FEET WITH NO
      SIGNIFICANT WEATHER AND/OR OBSTRUCTIONS TO VISIBILITY.

  * THESE STATIONS ARE PART OF THE UNIVERSITY OF SOUTH ALABAMA
    MESONET AND ARE NOT UNDER NWS OR FAA QUALITY CONTROL.

ALZ061>064-242100-
COASTAL ALABAMA

CITY           SKY/WX    TMP DP  RH WIND       PRES   REMARKS
MOBILE REG APT MOSUNNY   80  60  50 S8        29.94F
BROOKLEY FIELD SUNNY     77  65  66 S10       29.96F
USA CAMPUS*      N/A     82  63  51 SE7       29.94
DOG RIVER*     NOT AVBL


CITY           SKY/WX    TMP DP  RH WIND       PRES   REMARKS
MOUNT VERNON*  NOT AVBL
SARALAND*      NOT AVBL
BAY MINETTE*   NOT AVBL
LOXLEY*        NOT AVBL
ROBERTSDALE*     N/A     79  63  57 SW8       29.95F
FAIRHOPE*      NOT AVBL
ELBERTA*       NOT AVBL
FOLEY*         NOT AVBL
GRAND BAY*       N/A     77  66  69 S10       29.94F
DAUPHIN ISLND* NOT AVBL
BON SCOUR NWR* NOT AVBL
GULF SHORES    MOSUNNY   75  65  72 S10       29.96F

$$

ALZ051>060-242100-
INTERIOR SOUTHWEST AND SOUTH CENTRAL ALABAMA

CITY           SKY/WX    TMP DP  RH WIND       PRES   REMARKS
GREENVILLE     MOSUNNY   84  56  38 S8G16     29.91F
EVERGREEN      MOSUNNY   86  56  35 SW10      29.94F
CASTLEBERRY*   NOT AVBL
ATMORE*        NOT AVBL
DIXIE*         NOT AVBL
ANDALUSIA/OPP  PTSUNNY   88  58  36 VRB6      29.92F
ANDALUSIA*     NOT AVBL
FLORALA APT    SUNNY     83  59  44 SW14G20   29.95F
FLORALA*         N/A     82  57  42 S2        29.91F

$$

FLZ001>006-242100-
WESTERN FLORIDA PANHANDLE

CITY           SKY/WX    TMP DP  RH WIND       PRES   REMARKS
PENSACOLA      SUNNY     77  64  64 S14       29.96F
NAS PENSACOLA  MOSUNNY   75  66  73 S13       29.96F
MILTON         MOSUNNY   80  63  55 S13       29.94F
WHTNG S FIELD  MOSUNNY   81  64  56 S12       29.95F


CITY           SKY/WX    TMP DP  RH WIND       PRES   REMARKS
WALNUT HILL*   NOT AVBL
JAY*           NOT AVBL
DUKE FIELD     MOSUNNY   81  63  53 S14       29.95F
CRESTVIEW      MOSUNNY   83  57  41 SW8G18    29.96F
VALPARAISO     MOSUNNY   75  67  77 S10       29.97F
DESTIN         MOSUNNY   75  65  70 S8        29.97F

$$

MSZ076-079-242100-
INTERIOR SOUTHEAST MISSISSIPPI

CITY           SKY/WX    TMP DP  RH WIND       PRES   REMARKS
LEAKESVILLE*     N/A     79  54  41 SE7       29.95
AGRICOLA*      NOT AVBL

$$

MARINE OBSERVATIONS

STATION/POSITION TIME  TEMP    WIND        PRES    WAVE
                       AIR SEA DIR/SP/G            HT/PER
                 (UTC) (F)     (DEG/KT/KT) (MB)    (FT/S)
PASCAGOULA       2000   72     180/ 10/ 12 1014.2F
PETIT BOIS ISLND 2000   73     210/  8/  9 1014.9S
GRAND BAY        1900   73     190/  8     1016.0S
KATRINA CUT      1900   72     210/  8     1015.9S
CEDAR POINT      1900   71     200/  9     1015.2R
E DAUPHIN ISLAND 2000   72     190/  6/  9 1014.2F
MIDDLE BAY LIGHT 1900   71     190/ 10     1013.9F
USCG MOBILE BAY  2000   74 68  170/  7/ 13 1013.1F
STATE DOCKS      2000   72 66              1014.0F
MEAHER PARK      1900   71     190/ 11     1014.2F
WEEKS BAY        1900   74                   N/A
FORT MORGAN      2000   73     220/  8/ 10 1014.4F
12 S ORANGE BCH  2000   71 75  190/  6/  8 1014.9F   0
PENSACOLA BAY    2000   74 73  170/  6/  9 1015.1F
64 S DAUPHIN ISL 1910   72 74  190/  6/  8 1015.0F
67 S FORT MORGAN 1900   68                 1014.6S

$$

SELECTED LOCATIONS ACROSS THE REGION

CITY           SKY/WX    TMP DP  RH WIND       PRES   REMARKS
NEW ORLEANS    PTSUNNY   82  66  58 S16       29.93S
GULFPORT       MOSUNNY   78  65  63 S10       29.95S
PASCAGOULA AP  MOSUNNY   77  65  66 S12       29.95F
PASCAGOULA*      N/A     75  66  73 W7        29.95F
HATTIESBURG    MOSUNNY   84  58  40 SW14G21   29.92S
LAUREL         MOSUNNY   82  57  42 S8        29.92F
MERIDIAN       PTSUNNY   81  57  43 S13       29.90S
JACKSON        CLOUDY    84  57  39 S15G30    29.89F
MONTGOMERY     MOSUNNY   86  57  37 VRB7      29.92F
TROY           PTSUNNY   82  57  42 S8        29.93F
KINSTON*       NOT AVBL
GENEVA*          N/A     84  55  37 W6        29.94F
ASHFORD*       NOT AVBL
DOTHAN         MOSUNNY   83  56  39 SW7       29.96F
PANAMA CITY    MOSUNNY   78  64  61 S12       29.96F

$$




USA.gov is the U.S. government's official web portal to all federal, state and local government web resources and services.